Regional Weather Roundup
Issued by NWS Albany, NY

Home | Current Version | Previous Version | Graphics & Text | Print | Product List | Glossary Off
Versions: 1 2 3 4 5 6 7 8 9 10 11 12 13 14 15 16 17 18 19 20 21 22 23 24 25 26 27 28 29 30 31 32 33 34 35 36 37 38 39 40 41 42 43 44 45 46 47 48 49 50

000
ASUS41 KALY 101410
RWRALY

NEW YORK STATE HOURLY WEATHER ROUNDUP
NATIONAL WEATHER SERVICE ALBANY NY
1000 AM EDT THU JUL 10 2014

NOTE: "FAIR" INDICATES FEW OR NO CLOUDS BELOW 12,000 FEET WITH NO
SIGNIFICANT WEATHER AND/OR NO OBSTRUCTIONS TO VISIBILITY.

NYZ032-033-038>043-046>054-057>066-NYZ062>081-101500-
EAST


CITY           SKY/WX    TMP DP  RH WIND       PRES   REMARKS
ALBANY         MOSUNNY   71  54  54 N8        30.14S
GLENS FALLS    NOT AVBL
POUGHKEEPSIE   MOSUNNY   72  58  61 N8        30.11S
NEWBURGH       MOSUNNY   72  59  64 NE12      30.14R
MONTGOMERY     MOSUNNY   71  61  70 NE7       30.12S
WHITE PLAINS   PTSUNNY   73  60  63 NE6       30.11R
ISLIP          CLOUDY    75  59  57 NE13      30.08R
NEW YORK CITY  PTSUNNY   72  61  68 NE12G18   30.10R
CENTRAL PARK   PTSUNNY   74  63  68 VRB5      30.13R
$$

NYZ005>009-017-018-044>046-055-056-101500-
CENTRAL


CITY           SKY/WX    TMP DP  RH WIND       PRES   REMARKS
FULTON         MOSUNNY   65  52  62 CALM      30.17R
SYRACUSE       MOSUNNY   68  51  54 NW3       30.17R
ROME           SUNNY     65  53  65 NW8       30.17S
ELMIRA         MOSUNNY   68  56  65 N6        30.17R
BINGHAMTON     SUNNY     65  54  67 N6        30.17R
$$

NYZ026>034-041>043-101500-
NORTH


CITY           SKY/WX    TMP DP  RH WIND       PRES   REMARKS
WATERTOWN      SUNNY     66  49  54 SW3       30.16R
FORT DRUM      NOT AVBL
MASSENA        SUNNY     65  51  60 W8        30.13S
SARANAC LAKE   MOSUNNY   59  48  67 NW6       30.14R
PLATTSBURGH    PTSUNNY   69  50  50 VRB6      30.11S
$$

NYZ001>004-010>016-019>021-101500-
WEST


CITY           SKY/WX    TMP DP  RH WIND       PRES   REMARKS
NIAGARA FALLS  MOSUNNY   66  48  52 NE6       30.18R
BUFFALO        MOSUNNY   66  46  48 E7        30.18R
DUNKIRK        SUNNY     68  53  58 VRB6      30.17S
JAMESTOWN      SUNNY     63  54  72 E3        30.19R
WELLSVILLE     SUNNY     63  54  72 VRB3      30.21R
ROCHESTER      MOSUNNY   66  51  58 CALM      30.18R
PENN YAN       SUNNY     66  49  54 VRB5      30.19R
$$

             KEY
       WCI = WIND CHILL INDEX
       VSB = VISIBILITY
       HX  = HEAT INDEX
$$


USA.gov is the U.S. government's official web portal to all federal, state and local government web resources and services.